Palma de Mallorca, Spain

2:43 AM CEST on March 31, 2017 (GMT +0200)
Palma De Mallorca

Weather History for LEPA - November, 2011

Change the Weather History Date:

Friday, November 4, 2011

  Actual Average Record
Temperature  
Mean Temperature 64 °F -  
Max Temperature 69 °F 63 °F 75 °F (1998)
Min Temperature 59 °F 45 °F 41 °F (2000)
Degree Days  
Heating Degree Days 1    
Growing Degree Days 14 (Base 50)    
Moisture  
Dew Point 60 °F    
Average Humidity 87    
Maximum Humidity 100    
Minimum Humidity 62    
Precipitation  
Precipitation 0.75 in 0.06 in - ()
Sea Level Pressure  
Sea Level Pressure 29.55 in    
Wind  
Wind Speed 7 mph ()    
Max Wind Speed 26 mph    
Max Gust Speed 45 mph    
Visibility 5.7 miles    
Events Rain , Thunderstorm    
Averages and records for this station are not official NWS values.
T = Trace of Precipitation, MM = Missing Value Source: Averaged Metar Reports

Daily Weather History Graph

Daily Weather History Graph

Search for Another Location

Airport or City:

Trip Planner

Search our weather history database for the weather conditions in past years. The results will help you decide how hot, cold, wet, or windy it might be!

Date:

Astronomy

Nov. 04, 2011 Rise Set
Actual Time 7:20 AM CET 5:44 PM CET
Civil Twilight 6:52 AM CET 6:12 PM CET
Nautical Twilight 6:20 AM CET 6:44 PM CET
Astronomical Twilight 5:48 AM CET 7:15 PM CET
Moon 2:28 PM CET (11/4) 1:18 AM CET (11/4)
Length of Visible Light 11h 20m
Length of Day
10h 24m
Waxing Gibbous, 67% of the Moon is Illuminated
Nov 4
Waxing Gibbous
Nov 10
Full
Nov 18
Last Quarter
Nov 25
New
Dec 2
First Quarter

Hourly Weather History & Observations

Time (CET) Temp. Dew Point Humidity Pressure Visibility Wind Dir Wind Speed Gust Speed Precip Events Conditions
12:00 AM 69.8 °F 66.2 °F 88% 29.65 in 6.2 mi SW 5.8 mph - N/A   Scattered Clouds
12:30 AM 68.0 °F 64.4 °F 88% 29.65 in 6.2 mi SW 9.2 mph - N/A   Scattered Clouds
1:00 AM 67 °F 64 °F 86% 29.67 in 9 mi Calm Calm - - Rain Light Rain
1:00 AM 68.0 °F 64.4 °F 88% 29.65 in 6.2 mi SSW 3.5 mph - N/A Rain Light Rain
1:30 AM 66.2 °F 64.4 °F 94% 29.65 in 6.2 mi SSW 4.6 mph - N/A   Scattered Clouds
2:00 AM 66.2 °F 64.4 °F 94% 29.68 in 6.2 mi Calm Calm - N/A Rain Light Rain
2:30 AM 66.2 °F 64.4 °F 94% 29.65 in 6.2 mi Calm Calm - N/A   Scattered Clouds
3:00 AM 66.2 °F 64.4 °F 94% 29.68 in 6.2 mi Calm Calm - N/A Rain Rain
3:30 AM 68.0 °F 59.0 °F 73% 29.68 in 6.2 mi SW 12.7 mph - N/A Rain Rain
4:00 AM 66.2 °F 60.8 °F 83% 29.68 in 6.2 mi SW 13.8 mph - N/A Rain Rain
4:30 AM 62.6 °F 59.0 °F 88% 29.68 in 3.7 mi SW 9.2 mph - N/A Rain Rain
5:00 AM 62.6 °F 59.0 °F 88% 29.65 in 3.7 mi Calm Calm - N/A Rain Rain
5:30 AM 60.8 °F 59.0 °F 94% 29.62 in 3.7 mi NE 6.9 mph - N/A   Scattered Clouds
6:00 AM 60.8 °F 59.0 °F 94% 29.59 in 3.7 mi ENE 5.8 mph - N/A   Scattered Clouds
6:30 AM 60.8 °F 59.0 °F 94% 29.59 in 3.7 mi Calm Calm - N/A   Scattered Clouds
7:00 AM 61 °F 60 °F 93% 29.61 in 12 mi ENE 1.2 mph - -   Partly Cloudy
7:00 AM 60.8 °F 59.0 °F 94% 29.59 in 3.7 mi Calm Calm - N/A   Scattered Clouds
7:30 AM 60.8 °F 59.0 °F 94% 29.59 in 6.2 mi Variable 1.2 mph - N/A   Scattered Clouds
8:00 AM 60.8 °F 59.0 °F 94% 29.59 in 6.2 mi NE 2.3 mph - N/A   Scattered Clouds
8:30 AM 60.8 °F 60.8 °F 100% 29.62 in 6.2 mi NW 4.6 mph - N/A   Mostly Cloudy
9:00 AM 62.6 °F 60.8 °F 94% 29.62 in 6.2 mi Variable 2.3 mph - N/A Rain Light Rain
9:30 AM 62.6 °F 60.8 °F 94% 29.59 in 6.2 mi NE 4.6 mph - N/A   Mostly Cloudy
9:52 AM 62.6 °F 60.8 °F 94% 29.65 in 3.1 mi SSW 18.4 mph - N/A Rain , Thunderstorm Thunderstorms and Rain
9:53 AM 62.6 °F 60.8 °F 94% 29.65 in 0.5 mi SSW 26.5 mph 44.9 mph N/A Rain , Thunderstorm Heavy Thunderstorms and Rain
10:00 AM 59.0 °F 59.0 °F 100% 29.62 in 0.9 mi SSE 16.1 mph 34.5 mph N/A Rain , Thunderstorm Heavy Thunderstorms and Rain
10:30 AM 60.8 °F 60.8 °F 100% 29.62 in 3.7 mi South 3.5 mph - N/A Rain , Thunderstorm Light Rain
11:00 AM 59.0 °F 59.0 °F 100% 29.59 in 5.6 mi Variable 1.2 mph - N/A Rain Light Rain
11:30 AM 60.8 °F 60.8 °F 100% 29.56 in 6.2 mi Variable 2.3 mph - N/A   Scattered Clouds
12:00 PM 62.6 °F 60.8 °F 94% 29.50 in 6.2 mi ENE 5.8 mph - N/A   Scattered Clouds
12:30 PM 64.4 °F 62.6 °F 94% 29.47 in 6.2 mi ENE 6.9 mph - N/A   Scattered Clouds
1:00 PM 65 °F 62 °F 86% 29.48 in 16 mi East 8.1 mph - -   Partly Cloudy
1:00 PM 64.4 °F 60.8 °F 88% 29.47 in 6.2 mi ENE 9.2 mph - N/A   Partly Cloudy
1:30 PM 64.4 °F 60.8 °F 88% 29.44 in 6.2 mi NE 9.2 mph - N/A   Partly Cloudy
2:00 PM 64.4 °F 60.8 °F 88% 29.44 in 6.2 mi East 9.2 mph - N/A   Partly Cloudy
2:30 PM 64.4 °F 60.8 °F 88% 29.44 in 5.6 mi ENE 4.6 mph - N/A Rain Light Rain
2:33 PM 64.4 °F 60.8 °F 88% 29.44 in 5.6 mi Variable 3.5 mph - N/A Rain , Thunderstorm Light Thunderstorms and Rain
2:43 PM 64.4 °F 62.6 °F 94% 29.47 in 2.5 mi Variable 2.3 mph 13.8 mph N/A Rain , Thunderstorm Thunderstorms and Rain
2:44 PM 64.4 °F 62.6 °F 94% 29.50 in 0.6 mi SSW 13.8 mph 29.9 mph N/A Rain , Thunderstorm Heavy Thunderstorms and Rain
3:00 PM 60.8 °F 59.0 °F 94% 29.47 in 1.9 mi WSW 25.3 mph 36.8 mph N/A Rain , Thunderstorm Thunderstorms and Rain
3:07 PM 60.8 °F 59.0 °F 94% 29.47 in 4.3 mi West 9.2 mph - N/A Rain Light Rain
3:19 PM 60.8 °F 59.0 °F 94% 29.47 in 6.2 mi Variable 1.2 mph - N/A Rain Light Rain
3:30 PM 60.8 °F 59.0 °F 94% 29.47 in 6.2 mi Calm Calm - N/A   Partly Cloudy
4:00 PM 62.6 °F 60.8 °F 94% 29.47 in 6.2 mi Variable 2.3 mph - N/A   Partly Cloudy
4:30 PM 62.6 °F 60.8 °F 94% 29.44 in 6.2 mi Variable 2.3 mph - N/A   Partly Cloudy
5:00 PM 62.6 °F 60.8 °F 94% 29.47 in 6.2 mi SSE 3.5 mph - N/A   Partly Cloudy
5:30 PM 62.6 °F 60.8 °F 94% 29.47 in 6.2 mi SE 3.5 mph - N/A   Partly Cloudy
6:00 PM 66.2 °F 57.2 °F 73% 29.50 in 6.2 mi SSE 6.9 mph - N/A   Scattered Clouds
6:30 PM 66.2 °F 59.0 °F 78% 29.50 in 6.2 mi South 12.7 mph - N/A   Scattered Clouds
7:00 PM 67 °F 57 °F 62% 29.51 in 12 mi SSW 20.7 mph - -   Partly Cloudy
7:00 PM 68.0 °F 57.2 °F 68% 29.50 in 6.2 mi South 17.3 mph 28.8 mph N/A   Scattered Clouds
7:30 PM 66.2 °F 60.8 °F 83% 29.50 in 6.2 mi South 16.1 mph 29.9 mph N/A   Scattered Clouds
8:00 PM 68.0 °F 57.2 °F 68% 29.50 in 6.2 mi South 11.5 mph - N/A   Partly Cloudy
8:30 PM 68.0 °F 57.2 °F 68% 29.50 in 6.2 mi South 17.3 mph - N/A   Partly Cloudy
9:00 PM 68.0 °F 59.0 °F 73% 29.53 in 6.2 mi South 17.3 mph 28.8 mph N/A   Light Drizzle
9:30 PM 68.0 °F 57.2 °F 68% 29.53 in 6.2 mi South 17.3 mph - N/A   Scattered Clouds
9:46 PM 64.4 °F 57.2 °F 77% 29.53 in 3.7 mi South 12.7 mph - N/A Rain Rain Showers
10:00 PM 64.4 °F 59.0 °F 83% 29.53 in 6.2 mi SSW 17.3 mph 31.1 mph N/A   Mostly Cloudy
10:30 PM 68.0 °F 57.2 °F 68% 29.53 in 6.2 mi SSW 21.9 mph - N/A   Mostly Cloudy
11:00 PM 66.2 °F 55.4 °F 68% 29.53 in 6.2 mi SSW 21.9 mph - N/A   Mostly Cloudy
11:30 PM 66.2 °F 53.6 °F 64% 29.53 in 6.2 mi SSW 25.3 mph 42.6 mph N/A   Scattered Clouds